Location: Newark
(34.0131°N, 4.3314°W)
Time: 08:52:40
(UTC+00:00)

S-56A Canister/Altair - Visible Passes

Search period start: 15 October 2019 00:00
Search period end: 25 October 2019 00:00
Orbit: 633 x 2499 km, 38.9° (Epoch: 14 October)

Date Brightness Start Highest point End Pass type
(mag) Time Alt. Az. Time Alt. Az. Time Alt. Az.
15 Oct 9.8 02:51:57 33° ESE 02:51:57 33° ESE 02:58:03 10° ENE visible
15 Oct 8.9 04:49:23 30° WSW 04:53:55 82° NNW 05:05:42 10° ENE visible
16 Oct 10.4 02:21:12 20° E 02:21:12 20° E 02:24:21 10° ENE visible
16 Oct 8.5 04:18:38 53° WSW 04:20:54 86° NNW 04:31:54 10° ENE visible
17 Oct 11.0 01:50:25 11° E 01:50:25 11° E 01:50:38 10° E visible
17 Oct 8.3 03:47:51 87° SSW 03:47:58 88° SSE 03:58:10 10° ENE visible
17 Oct 9.3 05:45:17 10° W 05:53:35 67° N 06:06:13 10° E visible
18 Oct 9.0 03:17:03 55° E 03:17:03 55° E 03:24:31 10° ENE visible
18 Oct 9.1 05:14:29 20° W 05:20:24 66° N 05:32:16 10° E visible
19 Oct 9.8 02:46:13 32° ENE 02:46:13 32° ENE 02:50:56 10° ENE visible
19 Oct 8.9 04:43:39 35° WNW 04:47:17 66° N 04:58:23 10° ENE visible
20 Oct 10.5 02:15:22 18° ENE 02:15:22 18° ENE 02:17:28 10° ENE visible
20 Oct 8.5 04:12:48 56° WNW 04:14:16 67° N 04:24:34 10° ENE visible
21 Oct 8.6 03:41:57 65° NNE 03:41:57 65° NNE 03:50:50 10° ENE visible
21 Oct 9.2 05:39:23 12° WNW 05:46:56 70° NNE 05:59:07 10° E visible
22 Oct 9.3 03:11:06 43° ENE 03:11:06 43° ENE 03:17:14 10° ENE visible
22 Oct 9.0 05:08:31 22° WNW 05:13:49 67° N 05:25:11 10° E visible
23 Oct 10.1 02:40:14 25° ENE 02:40:14 25° ENE 02:43:43 10° ENE visible
23 Oct 8.8 04:37:40 37° WNW 04:40:47 64° N 04:51:18 10° E visible
24 Oct 10.8 02:09:24 13° ENE 02:09:24 13° ENE 02:10:19 10° ENE visible
24 Oct 8.5 04:06:49 56° NNW 04:07:49 61° N 04:17:30 10° E visible
